Wind_Speed
6 5 6 5 5 5 4 5 5 6 7 6 5 5 4 4 3 3 3 3 3 4 5 6 7 7 8 8 8 8 9 9 9 9 10 10 11 11 11 11 12 13 13 13 14 14 14 14 14
8 7 7 5 5 5 5 5 5 5 5 5 4 3 3 3 3 3 3 3 4 4 5 6 6 7 7 7 8 8 9 9 9 10 10 11 11 11 11 11 12 12 12 13 13 14 14 15 15
9 8 8 6 6 5 5 6 4 4 4 4 3 2 2 2 2 3 3 4 4 5 6 6 6 6 6 7 7 8 8 8 9 10 10 11 11 12 12 12 12 12 13 13 13 14 14 15 15
11 10 9 7 6 5 5 5 4 4 3 3 2 2 2 2 2 2 3 4 4 5 6 6 6 6 6 6 7 7 8 8 9 10 10 11 11 11 12 12 12 12 13 14 14 14 15 15 16
13 11 9 7 6 5 5 4 3 2 2 2 1 2 2 2 2 3 4 4 5 5 6 6 6 6 6 6 7 7 8 9 10 10 11 11 12 12 12 12 12 13 14 14 15 15 16 16 16
13 10 9 8 6 5 5 4 3 3 3 2 2 2 2 3 3 4 4 5 5 5 5 5 6 6 6 6 7 7 8 9 10 10 11 12 12 12 12 13 13 14 15 15 15 16 16 16 17
14 11 10 8 6 5 4 4 3 3 3 3 3 3 3 4 4 4 5 5 6 5 6 6 6 6 6 6 7 7 9 10 10 11 12 12 13 13 13 14 14 15 16 16 16 16 17 17 17
14 13 11 9 7 6 5 4 4 3 4 4 4 4 4 4 5 5 6 6 5 6 6 6 7 6 6 7 7 8 9 10 11 12 13 13 13 14 15 15 16 16 17 17 17 17 17 17 17
15 14 12 10 8 7 5 5 5 4 5 5 5 5 5 5 5 6 6 5 6 6 7 7 7 6 6 7 7 8 9 10 12 13 13 14 14 15 16 16 17 17 18 18 17 17 17 17 17
16 14 12 10 8 7 6 5 5 5 5 6 6 5 5 6 6 6 6 6 6 7 7 7 7 6 7 7 8 9 10 11 12 13 14 14 15 16 16 17 17 18 18 18 17 18 18 18 17
15 13 12 10 9 8 7 6 6 6 6 6 6 6 5 6 6 7 7 7 7 7 7 7 7 7 7 7 8 9 10 12 13 14 14 15 15 16 17 17 17 18 18 18 18 18 18 17 17
16 14 12 11 9 8 7 7 6 6 6 6 6 6 6 6 7 7 7 7 8 8 8 7 7 7 8 8 9 10 11 12 13 14 15 15 16 16 16 17 17 18 18 17 17 18 17 16 16
17 14 12 11 10 8 7 7 7 6 6 6 6 6 6 6 7 8 8 8 8 8 8 8 7 7 8 9 10 10 12 13 14 15 15 15 16 16 17 17 17 17 18 18 17 17 16 16 15
18 15 13 12 10 9 8 8 8 7 6 6 6 6 7 7 8 8 8 8 8 8 8 8 8 8 9 10 10 11 12 13 14 14 15 15 16 16 17 18 18 18 18 18 17 17 17 16 15
18 16 14 12 11 10 9 8 7 7 6 6 6 6 7 7 8 8 9 9 9 9 9 9 9 9 10 10 11 11 12 13 14 14 15 15 16 17 17 18 18 18 18 18 18 17 16 15 14
18 15 14 13 12 11 9 8 7 6 6 5 6 6 7 8 8 9 9 10 10 10 10 10 10 10 10 11 11 12 13 13 13 13 14 15 16 17 18 18 19 18 18 18 18 17 16 14 13
18 16 15 13 12 11 9 8 7 6 5 5 6 6 8 9 9 10 10 10 10 10 10 10 10 11 11 11 11 12 12 13 13 13 14 15 16 17 18 19 19 19 19 19 18 17 14 12 12
18 16 14 13 12 10 9 9 7 6 5 5 6 7 8 9 10 10 10 10 10 10 10 10 11 11 12 12 12 12 12 12 13 13 14 15 16 18 18 19 20 20 19 18 18 15 13 11 10
18 15 14 12 11 10 9 7 6 6 6 6 6 7 8 9 9 9 10 10 10 10 10 11 11 11 12 12 12 13 12 12 13 13 14 15 16 18 19 20 20 19 18 18 17 15 13 10 9
17 15 13 12 11 9 8 6 5 5 5 5 6 7 8 8 9 9 9 10 10 11 11 11 11 12 12 12 12 13 13 12 13 13 14 15 16 17 19 19 19 19 19 18 17 15 12 10 8
17 15 14 13 11 8 6 5 4 4 4 4 6 7 8 8 9 9 9 10 10 10 11 11 11 12 12 12 13 13 13 13 13 14 14 15 16 17 19 19 20 19 19 18 17 14 12 9 7
16 15 14 12 10 8 7 6 4 3 3 5 6 8 8 8 9 9 9 9 10 10 11 11 11 12 12 12 13 13 13 13 13 14 14 15 16 17 18 19 19 19 19 18 17 15 12 10 7
15 14 12 11 10 8 7 5 4 3 4 5 6 7 7 8 8 9 9 10 10 11 11 11 12 12 12 12 13 13 13 13 13 14 15 15 15 16 17 18 19 19 19 18 16 15 13 10 8
14 12 12 11 9 8 7 6 4 3 3 4 5 6 7 8 8 8 8 9 10 10 11 11 12 12 12 13 13 14 14 14 14 14 15 15 15 16 17 18 19 19 18 17 16 15 13 11 8
14 13 12 10 9 8 7 5 4 3 3 4 5 6 7 8 8 9 9 9 9 10 10 11 12 12 12 13 13 14 14 14 14 15 15 15 16 16 17 17 18 18 17 17 16 15 13 11 9
14 13 13 11 10 8 7 6 4 3 3 4 6 6 7 8 8 9 10 10 10 10 11 11 12 12 13 13 14 14 15 15 15 15 15 16 16 16 16 17 18 17 16 16 16 15 13 11 10
13 12 11 10 9 8 7 5 4 4 4 5 5 6 7 7 8 9 10 10 10 10 11 11 12 13 13 14 14 15 15 16 16 16 17 17 16 16 16 17 17 17 16 16 15 14 13 12 10
12 11 10 9 8 8 6 5 5 4 4 5 5 6 7 7 8 9 9 9 10 10 11 12 13 13 14 14 15 15 16 16 17 18 18 18 17 17 17 17 17 17 16 16 15 14 13 12 11
11 10 9 8 8 7 7 6 5 4 4 4 5 6 6 7 8 9 9 10 10 11 12 13 14 14 14 15 16 16 16 17 18 18 19 19 18 18 18 17 17 17 16 16 15 14 14 12 11
10 9 8 8 7 7 6 5 4 4 4 4 5 6 7 8 8 10 11 11 11 12 13 13 14 15 15 16 16 17 17 18 19 19 20 20 20 19 19 19 18 17 17 16 16 15 14 13 11
Wind_Direction
225 207 193 184 181 185 185 171 167 181 187 187 198 210 213 225 239 258 265 287 312 323 331 334 333 333 333 333 334 333 332 331 329 326 324 319 313 308 303 300 297 294 289 284 279 273 272 270 266
220 210 199 189 184 194 183 175 166 175 179 182 190 197 204 225 239 250 263 293 307 316 324 330 331 331 330 329 330 329 330 331 330 328 326 322 317 312 309 305 301 299 295 289 285 278 274 272 267
214 204 199 191 183 183 174 170 165 166 176 182 179 194 205 224 240 250 275 295 306 315 319 325 329 328 325 323 325 327 328 328 328 327 326 324 321 317 312 309 305 301 298 295 290 284 279 274 270
206 200 197 189 184 185 182 177 171 164 171 179 189 208 215 226 250 268 286 301 306 316 323 326 325 326 324 323 325 328 329 329 329 329 328 327 325 321 318 314 308 304 300 296 292 286 281 278 272
208 198 197 194 186 184 187 183 179 177 177 183 205 232 241 254 271 285 299 306 303 308 318 320 321 324 325 326 327 329 330 331 331 331 331 329 327 324 322 318 314 309 303 299 293 287 283 279 274
212 209 204 199 194 190 194 193 191 191 184 202 240 276 268 275 283 290 299 302 300 302 310 312 313 318 321 320 323 327 330 330 331 330 329 329 327 325 322 320 316 312 307 302 297 290 285 280 274
212 209 201 200 204 200 195 198 193 202 219 232 248 278 279 277 283 289 296 295 295 299 304 304 306 309 315 319 323 327 330 330 330 329 328 328 327 325 322 319 317 313 309 304 300 294 287 280 276
208 206 202 197 200 206 212 215 220 227 241 246 258 272 276 277 282 290 291 291 293 297 298 300 302 304 313 319 324 326 327 329 329 329 328 327 326 324 321 319 317 314 311 307 302 297 291 283 276
207 202 196 193 203 208 214 225 228 236 250 252 262 271 275 279 286 290 290 290 291 293 294 298 300 300 309 316 320 322 325 327 328 329 328 326 324 322 321 320 317 315 312 308 304 299 294 287 278
206 202 199 200 205 210 218 226 235 242 251 254 259 267 272 278 287 293 293 292 290 290 292 297 296 297 308 313 317 320 324 327 329 329 328 325 324 323 322 321 319 317 314 310 306 301 296 290 280
206 202 201 202 207 211 219 224 236 242 245 250 256 263 271 282 287 294 297 293 290 291 292 292 289 295 305 309 314 319 323 327 329 329 327 325 325 325 323 322 321 320 317 313 308 304 299 292 282
202 200 201 203 206 210 216 220 228 236 239 243 250 259 271 283 290 294 293 289 290 292 293 289 287 295 303 309 313 318 324 327 329 329 328 328 327 326 326 325 324 323 320 316 311 307 302 294 283
200 197 200 201 202 205 212 216 223 231 238 243 247 257 272 284 289 292 293 291 292 292 294 291 289 298 306 309 311 317 323 326 329 330 331 331 331 330 330 329 328 326 324 320 314 310 304 295 285
200 201 203 203 207 205 210 217 222 229 240 246 255 265 277 286 290 293 293 295 295 295 295 291 291 300 305 306 309 316 322 325 327 330 333 334 335 334 333 332 331 328 325 323 317 312 306 296 286
198 204 204 204 203 206 211 215 222 231 240 251 263 276 287 292 294 295 296 297 297 297 297 293 291 297 302 305 308 314 320 324 327 330 334 336 337 337 336 335 334 331 328 325 320 316 308 297 287
197 199 201 201 200 205 208 212 220 232 242 255 272 284 292 295 296 295 296 297 297 296 297 294 291 294 298 302 307 311 316 322 327 331 334 337 339 340 339 338 336 334 332 329 324 319 312 299 287
196 197 198 199 201 203 205 210 217 231 245 260 274 285 293 297 297 294 296 297 295 294 296 292 290 293 297 300 306 309 313 320 326 330 333 338 340 341 340 339 338 336 334 332 329 323 316 302 287
191 193 196 198 198 199 202 207 213 225 244 264 279 287 293 297 299 297 298 298 297 296 295 291 290 293 297 300 305 309 311 318 323 326 332 338 341 343 343 341 340 338 337 336 333 328 322 308 291
187 190 193 194 191 190 196 208 218 228 246 265 279 289 295 302 303 303 303 303 302 301 298 294 292 292 295 298 304 309 312 316 320 324 331 337 342 345 345 345 345 344 343 341 339 335 329 319 300
187 188 187 183 178 182 191 197 206 223 246 267 286 300 306 307 307 305 304 303 303 301 299 296 293 291 292 296 302 308 311 314 319 324 330 336 341 344 347 349 349 348 348 346 344 340 336 328 311
183 184 178 172 171 172 174 183 194 219 251 283 301 309 312 312 310 305 301 304 303 300 298 296 294 292 292 295 300 306 310 313 318 324 329 334 340 343 346 349 349 350 350 350 349 347 343 337 324
176 175 171 168 170 172 172 182 200 228 272 299 310 313 313 310 306 305 306 307 305 303 302 300 297 294 292 295 299 304 307 310 316 322 327 332 337 342 346 348 349 350 351 352 353 353 349 344 334
170 168 168 167 168 174 176 184 202 235 279 300 308 312 313 312 310 306 303 303 304 304 303 303 300 297 295 296 300 304 306 309 313 319 325 329 334 338 343 347 348 349 351 352 353 355 353 349 341
168 166 166 167 169 179 182 189 207 236 277 295 303 308 313 314 313 309 305 304 304 305 305 304 303 301 298 298 302 304 305 307 311 316 322 327 332 335 340 343 346 347 350 353 354 355 356 353 348
166 163 164 169 177 188 187 196 213 237 269 291 301 307 312 316 315 310 308 307 306 305 306 307 306 303 301 300 303 306 307 307 309 313 318 322 328 333 337 341 343 346 348 351 354 356 356 356 351
163 164 167 174 182 188 192 202 219 239 268 290 300 305 309 312 314 313 311 309 308 308 308 308 308 305 303 302 302 305 307 308 310 312 314 318 322 327 332 337 341 343 345 347 350 353 353 351 349
165 168 170 175 181 191 200 208 222 238 267 289 302 307 311 315 316 316 315 316 315 314 313 312 311 308 305 303 302 303 305 306 308 310 311 313 317 321 325 330 335 338 340 342 344 346 348 347 346
168 170 175 180 185 194 205 216 229 243 267 285 300 310 316 321 322 322 321 319 318 317 316 315 314 311 307 305 303 302 304 305 306 307 308 310 312 315 319 323 327 330 333 334 337 340 342 343 340
175 179 183 186 188 196 214 222 229 245 266 285 304 313 318 323 325 326 325 322 320 319 317 317 317 315 311 307 305 303 303 304 305 306 306 307 307 309 313 315 319 321 324 326 327 329 332 333 332
181 184 186 191 198 207 220 230 237 248 269 289 302 310 315 320 325 326 325 323 322 320 318 317 317 318 316 313 310 308 306 305 304 304 305 305 305 304 306 308 310 312 315 317 319 320 323 325 324
Height
5878 5879 5880 5882 5883 5883 5884 5885 5885 5886 5887 5888 5888 5889 5890 5891 5892 5894 5892 5890 5890 5889 5888 5887 5886 5885 5884 5884 5883 5882 5881 5880 5878 5877 5876 5875 5873 5872 5871 5870 5869 5868 5867 5866 5866 5866 5866 5866 5866
5877 5878 5880 5881 5882 5883 5884 5884 5885 5886 5887 5887 5888 5889 5890 5890 5890 5890 5890 5889 5889 5888 5887 5886 5885 5884 5884 5883 5882 5881 5880 5878 5877 5876 5874 5873 5872 5870 5869 5868 5866 5865 5864 5863 5863 5862 5862 5863 5863
5875 5877 5879 5880 5881 5883 5884 5885 5885 5885 5886 5887 5888 5889 5889 5889 5889 5889 5889 5888 5888 5887 5887 5885 5884 5884 5883 5882 5881 5880 5879 5877 5876 5874 5873 5871 5870 5868 5867 5865 5864 5863 5862 5861 5860 5860 5859 5859 5859
5873 5876 5878 5880 5881 5882 5883 5884 5885 5885 5886 5887 5888 5888 5888 5889 5889 5888 5888 5887 5887 5886 5885 5884 5884 5883 5882 5881 5880 5879 5878 5876 5875 5873 5872 5870 5868 5866 5865 5863 5862 5861 5860 5858 5857 5857 5856 5856 5856
5873 5875 5878 5879 5880 5882 5883 5883 5884 5885 5885 5886 5887 5887 5887 5888 5888 5887 5887 5886 5886 5885 5884 5883 5883 5882 5881 5880 5879 5878 5876 5875 5874 5872 5870 5868 5867 5865 5863 5862 5860 5858 5857 5856 5855 5854 5853 5853 5852
5873 5875 5878 5878 5880 5881 5882 5883 5884 5884 5885 5886 5887 5887 5887 5887 5887 5887 5886 5885 5885 5884 5883 5882 5881 5881 5880 5879 5878 5877 5875 5874 5872 5871 5869 5867 5865 5863 5861 5860 5858 5856 5855 5853 5852 5851 5850 5849 5849
5872 5874 5876 5878 5879 5881 5882 5882 5883 5884 5885 5885 5886 5886 5886 5886 5886 5885 5885 5884 5883 5883 5882 5881 5880 5880 5879 5878 5877 5876 5874 5873 5871 5869 5867 5865 5863 5861 5859 5857 5855 5854 5852 5850 5849 5847 5846 5846 5845
5869 5873 5875 5877 5878 5880 5881 5882 5883 5883 5884 5885 5885 5885 5885 5885 5885 5884 5884 5883 5882 5882 5881 5880 5879 5879 5878 5877 5876 5875 5873 5872 5870 5868 5866 5864 5862 5859 5857 5855 5853 5851 5849 5847 5845 5844 5843 5842 5841
5867 5872 5873 5876 5877 5879 5880 5881 5882 5882 5883 5883 5884 5884 5884 5884 5883 5883 5883 5882 5881 5881 5880 5879 5878 5878 5877 5876 5875 5873 5872 5870 5868 5866 5864 5862 5860 5857 5855 5853 5850 5848 5846 5844 5842 5840 5839 5838 5837
5866 5869 5872 5874 5876 5877 5879 5880 5881 5881 5882 5882 5883 5883 5883 5883 5882 5882 5882 5881 5880 5879 5879 5878 5877 5877 5876 5875 5873 5872 5871 5869 5867 5865 5862 5860 5857 5855 5852 5850 5848 5845 5843 5840 5838 5836 5835 5833 5833
5864 5868 5870 5872 5874 5876 5877 5878 5879 5880 5880 5881 5881 5882 5882 5882 5881 5881 5880 5880 5879 5878 5878 5877 5876 5875 5875 5874 5872 5871 5869 5868 5865 5863 5860 5858 5855 5853 5850 5847 5845 5842 5839 5837 5835 5832 5831 5829 5828
5863 5866 5869 5871 5873 5874 5875 5877 5877 5878 5879 5879 5880 5880 5880 5880 5880 5879 5879 5878 5878 5877 5877 5876 5875 5874 5874 5872 5871 5870 5868 5866 5864 5861 5859 5856 5853 5850 5847 5845 5842 5839 5836 5833 5831 5829 5826 5825 5824
5861 5864 5867 5869 5871 5873 5874 5875 5876 5877 5877 5878 5879 5879 5879 5879 5879 5878 5878 5877 5877 5876 5875 5875 5874 5873 5872 5871 5870 5868 5867 5864 5862 5859 5857 5854 5851 5848 5845 5842 5839 5836 5833 5830 5828 5825 5823 5821 5820
5859 5862 5865 5868 5869 5871 5873 5874 5875 5876 5876 5877 5877 5877 5878 5877 5877 5877 5876 5876 5875 5875 5874 5874 5873 5872 5871 5870 5869 5867 5865 5863 5860 5858 5855 5852 5849 5846 5843 5840 5837 5833 5830 5827 5824 5822 5819 5817 5816
5858 5861 5864 5866 5868 5870 5872 5873 5874 5875 5875 5876 5876 5876 5876 5876 5876 5875 5875 5874 5874 5873 5873 5872 5872 5871 5870 5869 5867 5866 5864 5861 5859 5856 5853 5850 5847 5844 5841 5838 5834 5831 5827 5824 5821 5818 5815 5813 5812
5856 5860 5862 5865 5866 5868 5872 5873 5873 5874 5874 5875 5875 5875 5875 5875 5874 5874 5874 5873 5872 5872 5871 5871 5870 5870 5869 5867 5866 5864 5862 5860 5857 5854 5852 5849 5846 5842 5839 5836 5832 5828 5825 5821 5818 5815 5812 5810 5809
5855 5858 5861 5863 5865 5867 5870 5871 5872 5873 5873 5874 5874 5874 5874 5873 5873 5872 5872 5872 5871 5871 5870 5869 5869 5868 5867 5866 5864 5863 5860 5858 5856 5853 5850 5847 5844 5841 5837 5834 5830 5826 5822 5819 5815 5811 5809 5807 5806
5854 5857 5860 5862 5864 5866 5868 5870 5871 5872 5872 5873 5873 5873 5873 5872 5872 5871 5871 5870 5870 5869 5869 5868 5867 5866 5866 5864 5863 5861 5859 5857 5854 5852 5849 5846 5843 5839 5836 5832 5828 5824 5820 5816 5812 5809 5806 5804 5803
5852 5856 5859 5861 5863 5866 5867 5869 5870 5871 5871 5872 5872 5872 5871 5871 5871 5870 5870 5869 5868 5868 5867 5866 5866 5865 5864 5863 5861 5859 5857 5855 5853 5850 5848 5844 5841 5838 5834 5830 5826 5822 5818 5814 5810 5807 5804 5802 5801
5852 5855 5858 5860 5863 5865 5867 5868 5869 5870 5870 5871 5871 5871 5871 5870 5869 5869 5868 5868 5867 5866 5866 5865 5864 5863 5862 5861 5859 5858 5856 5853 5851 5849 5846 5843 5840 5836 5833 5829 5825 5820 5816 5812 5809 5805 5803 5800 5799
5851 5855 5857 5860 5863 5865 5867 5868 5869 5870 5870 5870 5870 5870 5869 5869 5868 5868 5867 5866 5865 5865 5864 5863 5862 5861 5860 5859 5858 5856 5854 5852 5850 5847 5845 5842 5838 5835 5831 5828 5824 5820 5815 5812 5808 5804 5802 5799 5798
5851 5854 5857 5860 5863 5865 5868 5868 5869 5869 5870 5870 5869 5868 5868 5867 5867 5866 5865 5865 5864 5863 5862 5861 5860 5859 5858 5857 5856 5854 5852 5850 5848 5846 5843 5840 5837 5834 5830 5827 5823 5819 5815 5811 5807 5804 5801 5799 5797
5852 5855 5857 5860 5863 5865 5867 5869 5869 5868 5869 5869 5868 5867 5866 5866 5865 5864 5864 5863 5862 5861 5860 5859 5858 5857 5856 5855 5854 5852 5850 5848 5846 5844 5842 5839 5836 5833 5830 5826 5822 5818 5814 5811 5807 5804 5801 5799 5797
5852 5855 5858 5860 5863 5865 5866 5868 5868 5867 5868 5867 5867 5866 5865 5864 5863 5863 5862 5861 5860 5860 5858 5857 5856 5855 5854 5853 5851 5850 5848 5847 5845 5842 5840 5837 5835 5832 5829 5825 5822 5818 5814 5811 5807 5804 5802 5799 5797
5853 5856 5859 5861 5863 5864 5865 5866 5867 5866 5866 5866 5865 5864 5863 5863 5862 5861 5860 5859 5859 5858 5857 5855 5854 5853 5852 5851 5849 5848 5846 5845 5843 5841 5838 5836 5833 5831 5828 5824 5821 5818 5814 5811 5808 5805 5802 5800 5798
5852 5856 5859 5862 5862 5863 5864 5865 5866 5865 5864 5864 5864 5863 5862 5861 5860 5859 5858 5857 5857 5856 5855 5853 5852 5851 5850 5848 5847 5846 5844 5843 5841 5839 5836 5834 5832 5829 5826 5823 5820 5817 5814 5811 5808 5805 5802 5800 5798
5853 5855 5858 5860 5861 5863 5863 5864 5864 5863 5863 5863 5862 5861 5860 5860 5859 5858 5857 5856 5855 5854 5852 5851 5850 5848 5847 5846 5844 5843 5842 5840 5838 5836 5834 5832 5830 5828 5825 5822 5819 5817 5814 5811 5808 5805 5802 5800 5798
5853 5855 5857 5859 5860 5861 5862 5862 5863 5862 5861 5861 5860 5859 5859 5858 5857 5856 5855 5854 5853 5852 5850 5849 5848 5846 5845 5843 5842 5840 5839 5837 5836 5834 5832 5830 5828 5826 5823 5821 5818 5816 5813 5810 5807 5805 5802 5800 5798
5853 5855 5856 5858 5859 5860 5860 5863 5861 5860 5860 5859 5858 5858 5857 5856 5855 5854 5853 5852 5851 5849 5848 5847 5845 5844 5842 5840 5839 5837 5836 5834 5832 5831 5829 5827 5825 5823 5821 5819 5817 5814 5812 5809 5807 5804 5801 5799 5797
5852 5853 5855 5857 5857 5858 5859 5862 5858 5858 5857 5857 5857 5856 5855 5854 5853 5852 5851 5850 5849 5847 5846 5844 5843 5841 5839 5838 5836 5834 5832 5831 5829 5827 5826 5824 5822 5820 5818 5816 5814 5812 5810 5807 5805 5803 5800 5798 5796